Regional Weather Roundup
Issued by NWS

Home | Current Version | Previous Version | Graphics & Text | Print | Product List | Glossary On
Versions: 1 2 3 4 5 6 7 8 9 10 11 12 13 14 15 16 17 18 19 20 21 22 23 24 25 26 27 28 29 30 31 32 33 34 35 36 37 38 39 40 41 42 43 44 45 46 47 48 49 50
000
ASUS43 KMKX 010900
RWRWI

WISCONSIN REGIONAL WEATHER ROUNDUP
NATIONAL WEATHER SERVICE MILWAUKEE/SULLIVAN WI
400 AM CDT WED OCT 01 2014

NOTE: "FAIR" INDICATES FEW OR NO CLOUDS BELOW 12,000 FEET WITH NO
SIGNIFICANT WEATHER AND/OR OBSTRUCTIONS TO VISIBILITY.

WIZ001-002-006>008-014>016-023>028-011000-
NORTHWEST WISCONSIN

CITY           SKY/WX    TMP DP  RH WIND       PRES   REMARKS
SUPERIOR ARPT  CLOUDY    48  45  89 E5        29.90F
ASHLAND        MOCLDY    44  42  93 E3        29.94F
HAYWARD        CLOUDY    47  43  86 S9        29.93F
SIREN          CLOUDY    48  42  80 S9        29.89F
CUMBERLAND     CLOUDY    45  41  87 SE14      29.92F
RICE LAKE      CLOUDY    47  42  84 SE13G18   29.94F
CHETEK         CLOUDY    46  43  89 E12G20    29.94F
LADYSMITH      CLOUDY    47  43  87 SE9       29.97F
EAU CLAIRE     NOT AVBL
MENOMONIE      CLOUDY    48  43  84 E12       29.93F
NEW RICHMOND   CLOUDY    48  42  81 SE8       29.89F
OSCEOLA        CLOUDY    48  44  84 SE13G18   29.91S
$$

WIZ003>005-009-010-017-018-011000-
NORTH CENTRAL WISCONSIN

CITY           SKY/WX    TMP DP  RH WIND       PRES   REMARKS
MANITOWISH WTR CLOUDY    44  44 100 S9        29.97R
ARBOR VITAE    CLOUDY    44  42  93 S7        29.98R
WOODRUFF       CLOUDY    44  42  93 S7        29.98R
RHINELANDER    CLOUDY    43  42  97 S6        30.01S FOG
EAGLE RIVER    CLOUDY    43  43 100 S10G17    29.97F FOG
LAND O LAKES   CLOUDY    45  44  96 SE7       29.98F
PHILLIPS       CLOUDY    43  42  93 S10       29.97F
TOMAHAWK       CLOUDY    43  41  95 S5        30.00R FOG
MEDFORD        CLOUDY    44  43  97 SE7       29.99F FOG
MERRILL        CLOUDY    44  44 100 S8        30.01R FOG
$$

WIZ029-030-035-036-043>047-011000-
CENTRAL WISCONSIN

CITY           SKY/WX    TMP DP  RH WIND       PRES   REMARKS
WAUSAU         CLOUDY    45  43  93 SE8       30.01R FOG
MOSINEE        CLOUDY    45  45 100 SE7       30.01S FOG
MARSHFIELD     CLOUDY    46  43  89 SE10      30.00S
STEVENS POINT  DRIZZLE   44  43  97 SE6       30.01S
WAUPACA        CLOUDY    49  48  95 E3        30.02R FOG
WAUTOMA        NOT AVBL
WISC RAPIDS    CLOUDY    46  45  96 SE3       30.01S FOG
CAMP DOUGLAS   NOT AVBL
$$

WIZ011>013-019>022-031-037>040-048>050-011000-
NORTHEAST WISCONSIN

CITY           SKY/WX    TMP DP  RH WIND       PRES   REMARKS
ANTIGO         CLOUDY    43  43 100 SE8       30.01F FOG
SHAWANO        CLOUDY    48  46  93 CALM      30.03F FOG
OCONTO         CLOUDY    50  50 100 S5        30.02F
STURGEON BAY   NOT AVBL
GREEN BAY      CLOUDY    49  48  97 CALM      30.03S FOG
MANITOWOC      NOT AVBL
APPLETON       CLOUDY    46  45  93 E5        30.02F FOG
CLINTONVILLE   CLOUDY    45  45 100 CALM      30.03S FOG
OSHKOSH        CLOUDY    50  49  96 SE5       30.01F FOG
$$

WIZ032>034-041-042-053>061-011000-
SOUTHWEST WISCONSIN

CITY           SKY/WX    TMP DP  RH WIND       PRES   REMARKS
LA CROSSE      CLOUDY    50  44  80 SE8       29.95F
SPARTA         CLOUDY    47  43  84 SE5       29.98R
VIROQUA        CLOUDY    46  46 100 SE9       29.96S
BOSCOBEL       CLOUDY    51  45  79 VRB5      29.98S
PRAIRIE DU CHI CLOUDY    49  44  83 E9        29.95S
PLATTEVILLE    CLOUDY    49  47  91 E12       29.97S
$$

WIZ056-057-062-063-064-067-068-011000-
SOUTH CENTRAL WISCONSIN

CITY           SKY/WX    TMP DP  RH WIND       PRES   REMARKS
REEDSBURG      CLOUDY    48  46  91 CALM      29.98S
BARABOO/DELLS  CLOUDY    47  45  90 E3        29.99S
LONE ROCK      NOT AVBL
MINERAL POINT  CLOUDY    50  46  87 SE12      29.97S
MADISON        CLOUDY    49  46  90 SE3       29.99S
MIDDLETON      CLOUDY    51  48  89 SE8       29.99F
WATERTOWN      CLOUDY    48  48 100 E6        29.99F
MONROE         CLOUDY    50  46  87 SE5       29.98S
JANESVILLE     CLOUDY    50  46  87 CALM      29.98S
$$

WIZ051-052-058>065-066-070>072-011000-
SOUTHEAST WISCONSIN

CITY           SKY/WX    TMP DP  RH WIND       PRES   REMARKS
MILWAUKEE      CLOUDY    56  50  80 SE9       30.00S
WAUKESHA       CLOUDY    48  46  93 CALM      30.02R
MILWAUKEE/TIMM CLOUDY    52  46  82 CALM      30.01F
RACINE         CLOUDY    56  47  71 SE7       30.02S
BURLINGTON     CLOUDY    49  49  98 CALM      30.00S
KENOSHA        CLOUDY    55  48  77 SE7       30.01S
FOND DU LAC    CLOUDY    49  47  93 CALM      30.02S
SHEBOYGAN      NOT AVBL
WEST BEND      CLOUDY    50  46  87 CALM      30.01S
JUNEAU         CLOUDY    48  47  94 NE5       30.01F
$$

LSZ147-162-011000-
LAKE SUPERIOR

STATION/POSITION TIME  TEMP    WIND        PRES    WAVE
                       AIR SEA DIR/SP/G            HT/PER
                 (UTC) (F)     (DEG/KT/KT) (MB)    (FT/S)
W MID LAKE BUOY  0750   48 50  140/ 16/ 19 1014.4F   2/ 4
DEVILS ISLAND    0800   50     160/  5/  7 1014.6R
SAXON HARBOR     0840   41      CALM  /  3 1014.2R
$$

LMZ867-665-643>646-011000-
LAKE MICHIGAN

STATION/POSITION TIME  TEMP    WIND        PRES    WAVE
                       AIR SEA DIR/SP/G            HT/PER
                 (UTC) (F)     (DEG/KT/KT) (MB)    (FT/S)
CHAMBERS ISLAND  0800   52     170/  2/  5 1017.3F
S GREEN BAY BUOY 0800   53                 1017.7
N MID LAKE BUOY  0750   54 58  170/ 10/ 14 1017.6F   1/ 3
NORTHPORT PIER   0800   54     150/  7/ 12 1016.9F
KEWAUNEE LAKESHO 0800   52     160/  6/  7 1015.9F
SHEBOYGAN LAKESH 0800   55 54  140/ 14/ 15 1016.6F
PORT WASHINGTON  0800   56     150/  8/ 12 1016.6F
ATWATER BUOY     0800   56     110/  8/ 10 1017.0F
MILWAUKEE LAKESH 0800   56      90/  8/ 10   N/A
S MID LAKE BUOY  0750   57 62  110/ 12/ 16 1016.4F   2/ 6
KENOSHA   LAKESH 0800   57     150/ 14/ 17 1015.9S
$$

TC  - TEMPERATURE IN CELSIUS
VSB - VISIBILITY IN STATUTE MILES
WCI - WIND CHILL INDEX
HX  - HEAT INDEX




USA.gov is the U.S. government's official web portal to all federal, state and local government web resources and services.